[[{"header":{"parameterUnit":"m.s-1","parameterCategory":1,"la1":30.2991,"la2":30.254,"lo1":-89.0895,"lo2":-89.0444,"dy":0.0017,"dx":0.0017,"nx":28,"ny":28,"refTime":"2025-11-12T03:00:00:Z","depth":0,"parameterNumber":2,"parameterNumberName":"U-component_of_WINDS"},"data":[0,0,0,0,0,0,0,0,0,0,0,0,0,0,0,0,0,0,0,0,0,0,0,0,0,0,0,0,0,0,0,0,0,0,0,0,0,0,0,0,0,0,0,0,0,0,0,0,0,0,0,0,0,0,0,0,0,0,0.7401,0.7401,0,0.7466,0.7467,0.7467,0.7485,0.7485,0.7484,0.7484,0.7551,0.7553,0.7555,0,0,0,0,0,0,0,0,0,0,0,0,0,0.7289,0.7291,0.7401,0.7401,0.7402,0.7466,0.7467,0.7468,0.7485,0.7485,0.7484,0.7484,0.755,0.7553,0.7555,0,0,0,0,0,0,0,0,0,0,0,0,0,0.7344,0.7292,0.74,0.7419,0.7421,0.7466,0.7467,0.7468,0.7485,0.7485,0.7484,0.7484,0.7549,0.7552,0.7556,0.7587,0,0,0.7565,0.7567,0,0,0,0,0,0,0,0,0.7341,0.7348,0.7415,0.7418,0.742,0.7467,0.7452,0.7508,0.7485,0.7461,0.7484,0.7483,0.7523,0.7529,0.7542,0.759,0.7593,0.7566,0.7568,0.7569,0.757,0,0,0,0,0,0,0,0.7337,0.7346,0.7426,0.7416,0.7419,0.7423,0.743,0.7463,0.7495,0.7463,0.7464,0.7472,0.7525,0.7539,0.7544,0.7594,0.7566,0.7568,0.757,0.7572,0.7668,0.7668,0,0,0,0,0,0,0.7331,0.7342,0.7424,0.7428,0.7379,0.7425,0.7434,0.7452,0.7494,0.75,0.7472,0.7473,0.7534,0.754,0.7546,0.7584,0.7569,0.7572,0.7574,0.7667,0.7668,0.7668,0,0,0,0,0,0,0.7328,0.7338,0.7422,0.7386,0.7397,0.7428,0.7449,0.7454,0.7468,0.7501,0.7507,0.7481,0.7534,0.7542,0.7576,0.7586,0.7573,0.7576,0.7666,0.7667,0.7668,0.766,0,0,0,0,0,0,0.7325,0.7337,0.735,0.7386,0.7399,0.7451,0.745,0.7456,0.7474,0.7475,0.7511,0.7517,0.7534,0.7571,0.7579,0.7591,0.7579,0.7665,0.7667,0.7668,0.766,0.7661,0.7662,0,0,0,0,0,0.7321,0.7345,0.735,0.736,0.7415,0.7451,0.7459,0.7478,0.7475,0.7487,0.7508,0.7516,0.7584,0.7574,0.7584,0.7596,0.7665,0.7666,0.7668,0.7659,0.766,0.7662,0,0,0,0,0,0,0.731,0.735,0.7356,0.7393,0.7419,0.7454,0.7471,0.7479,0.7506,0.7506,0.7528,0.7536,0.7568,0.7586,0.7574,0.7627,0.7624,0.7628,0.7615,0.7616,0.7617,0.7612,0.7581,0,0,0,0,0,0.7311,0.7338,0.7372,0.7401,0.7413,0.744,0.7456,0.7469,0.7496,0.7507,0.753,0.7556,0.7583,0.7601,0.7628,0.7662,0.7669,0.7675,0.7676,0.7677,0.7679,0.7697,0.7699,0.7673,0.7673,0.7673,0,0,0.7315,0.7341,0.7356,0.7399,0.742,0.7446,0.7449,0.7477,0.7496,0.7511,0.7544,0.7562,0.7593,0.7626,0.7642,0.7642,0.7688,0.7679,0.7679,0.7681,0.7698,0.7701,0.7703,0.7674,0.7674,0.7674,0,0,0.7335,0.7358,0.7384,0.7405,0.7436,0.7454,0.7459,0.7494,0.7506,0.754,0.7551,0.7574,0.7621,0.7641,0.7658,0.7683,0.7691,0.7692,0.7697,0.7713,0.7715,0.7717,0.7725,0.7728,0.7694,0.7694,0.7694,0,0.7336,0.7376,0.7396,0.7423,0.7441,0.7455,0.7481,0.75,0.7539,0.755,0.7549,0.7607,0.7628,0.7666,0.7672,0.7685,0.7692,0.7687,0.7714,0.7716,0.7718,0.7725,0.7728,0.7694,0.7694,0.7694,0.7694,0,0.7375,0.7402,0.7419,0.7455,0.7475,0.7501,0.7524,0.7542,0.7552,0.7569,0.7602,0.7628,0.7659,0.7669,0.768,0.7708,0.7707,0.7709,0.7707,0.772,0.7727,0.773,0.7693,0.7694,0.7694,0.7694,0,0,0.739,0.7436,0.7442,0.7458,0.7493,0.7514,0.754,0.7571,0.7584,0.761,0.7632,0.767,0.7672,0.7691,0.7704,0.7718,0.7735,0.7719,0.772,0.772,0.7766,0.7763,0.7766,0.774,0.7741,0.7741,0.7763,0,0.7414,0.7461,0.7478,0.7517,0.7541,0.7554,0.7577,0.76,0.7616,0.7639,0.7656,0.7682,0.7684,0.7695,0.771,0.773,0.7744,0.7728,0.7759,0.776,0.7751,0.777,0.7768,0.7787,0.7766,0.7766,0.7767,0,0.7448,0.7473,0.7513,0.7544,0.7555,0.7575,0.7603,0.7625,0.7651,0.7662,0.7681,0.7693,0.7719,0.7715,0.7751,0.774,0.7754,0.7765,0.7766,0.7769,0.7764,0.7773,0.7793,0.7796,0.7772,0.7771,0.7771,0,0.7453,0.7497,0.7527,0.754,0.7577,0.759,0.7606,0.7632,0.7648,0.7673,0.7684,0.7711,0.7726,0.7747,0.7765,0.776,0.7799,0.7796,0.7807,0.7807,0.7815,0.7814,0.7837,0.7824,0.7824,0.7824,0.7824,0,0.7477,0.75,0.7529,0.7547,0.7574,0.7594,0.7619,0.7636,0.7658,0.7679,0.7692,0.7711,0.7735,0.7756,0.7771,0.7797,0.7804,0.7813,0.7816,0.7811,0.781,0.782,0.7819,0.7825,0.7825,0.7825,0.7825,0,0.7487,0.7508,0.754,0.7572,0.758,0.7598,0.7625,0.7642,0.7658,0.7684,0.7692,0.7717,0.7743,0.7763,0.7798,0.7807,0.7835,0.7839,0.7826,0.7828,0.7837,0.7835,0.7867,0.7871,0.7856,0.7857,0.7857,0,0.75,0.7519,0.7552,0.7567,0.7582,0.7606,0.7623,0.7643,0.7659,0.7689,0.7703,0.773,0.7752,0.7793,0.7815,0.784,0.7845,0.7854,0.7849,0.7842,0.7844,0.7842,0.7843,0.7854,0.7854,0.7854,0.7854,0,0.7521,0.753,0.7554,0.7581,0.76,0.7622,0.7644,0.7655,0.7679,0.7697,0.7723,0.7741,0.7775,0.7801,0.7829,0.7845,0.7853,0.7856,0.7859,0.7854,0.7846,0.7849,0.7827,0.7855,0.7855,0.7855,0.7855,0.7855,0.7533,0.7549,0.7575,0.76,0.7619,0.7639,0.7656,0.7674,0.7697,0.7726,0.7736,0.7763,0.7788,0.7825,0.7841,0.7862,0.7863,0.7868,0.787,0.787,0.7869,0.7842,0.7867,0.7867,0.7867,0.7867,0.7867,0,0.7553,0.757,0.7593,0.7624,0.7643,0.7649,0.7674,0.769,0.7713,0.7735,0.7757,0.7787,0.7812,0.7834,0.786,0.7873,0.7877,0.7879,0.7878,0.7881,0.7868,0.7862,0.7875,0.7875,0.7875,0.7875,0.7875,0.7875,0.7566,0.7594,0.7605,0.7642,0.7658,0.7685,0.7698,0.7716,0.7734,0.7767,0.7787,0.7802,0.7824,0.7851,0.7874,0.788,0.7888,0.7889,0.7896,0.7883,0.7882,0.7881,0.7875,0.7891,0.7891,0.7907,0.7907,0.7907]},{"header":{"parameterUnit":"m.s-1","parameterCategory":1,"la1":30.2991,"la2":30.254,"lo1":-89.0895,"lo2":-89.0444,"dy":0.0017,"dx":0.0017,"nx":28,"ny":28,"refTime":"2025-11-12T03:00:00:Z","depth":0,"parameterNumber":3,"parameterNumberName":"V-component_of_WINDS"},"data":[0,0,0,0,0,0,0,0,0,0,0,0,0,0,0,0,0,0,0,0,0,0,0,0,0,0,0,0,0,0,0,0,0,0,0,0,0,0,0,0,0,0,0,0,0,0,0,0,0,0,0,0,0,0,0,0,0,0,1.2947,1.2946,0,1.2846,1.2844,1.2843,1.2792,1.2792,1.2792,1.2792,1.2683,1.2681,1.2678,0,0,0,0,0,0,0,0,0,0,0,0,0,1.3092,1.3089,1.2947,1.2946,1.2945,1.2846,1.2844,1.2843,1.2792,1.2792,1.2792,1.2792,1.2684,1.2681,1.2678,0,0,0,0,0,0,0,0,0,0,0,0,0,1.3013,1.3088,1.2947,1.2907,1.2903,1.2846,1.2844,1.2843,1.2792,1.2792,1.2792,1.2792,1.2685,1.2681,1.2677,1.2652,0,0,1.2664,1.2662,0,0,0,0,0,0,0,0,1.3018,1.3008,1.2914,1.291,1.2905,1.2831,1.2856,1.2778,1.2792,1.2834,1.2792,1.2791,1.2732,1.2724,1.2705,1.2646,1.2642,1.2664,1.2661,1.2659,1.2658,0,0,0,0,0,0,0,1.3023,1.3012,1.2907,1.2913,1.2907,1.2893,1.2881,1.2841,1.2784,1.283,1.2826,1.2815,1.273,1.2709,1.2702,1.264,1.2664,1.266,1.2657,1.2656,1.2553,1.2553,0,0,0,0,0,0,1.3036,1.3017,1.291,1.2904,1.2962,1.289,1.2878,1.2855,1.2785,1.2774,1.2815,1.2813,1.2717,1.2707,1.2698,1.2662,1.2659,1.2655,1.2653,1.2553,1.2553,1.2553,0,0,0,0,0,0,1.3039,1.3027,1.2914,1.2959,1.2944,1.2888,1.2862,1.2853,1.2833,1.2773,1.2763,1.2805,1.2716,1.2704,1.2663,1.2658,1.2653,1.2649,1.2553,1.2553,1.2553,1.2591,0,0,0,0,0,0,1.3044,1.3028,1.3019,1.296,1.2942,1.2883,1.2862,1.2851,1.2826,1.2822,1.2761,1.2751,1.2715,1.267,1.2659,1.2652,1.2646,1.2553,1.2553,1.2553,1.259,1.2592,1.2594,0,0,0,0,0,1.3049,1.3034,1.3019,1.3007,1.293,1.2883,1.2872,1.2833,1.2826,1.2815,1.2777,1.2753,1.266,1.2666,1.2653,1.2645,1.2554,1.2553,1.2553,1.2589,1.2592,1.2594,0,0,0,0,0,0,1.3093,1.3025,1.3008,1.2974,1.2935,1.2874,1.286,1.2837,1.2798,1.2796,1.2747,1.2733,1.2697,1.2666,1.2674,1.2615,1.2604,1.2601,1.2636,1.2638,1.264,1.2648,1.2643,0,0,0,0,0,1.31,1.3069,1.301,1.2985,1.2966,1.2917,1.2895,1.2867,1.2824,1.2807,1.2766,1.2723,1.2684,1.266,1.2621,1.2585,1.257,1.2573,1.2575,1.2577,1.2575,1.2552,1.2552,1.2551,1.2551,1.2551,0,0,1.3111,1.307,1.3053,1.2993,1.2959,1.2926,1.2903,1.287,1.2844,1.2801,1.276,1.2728,1.2677,1.2639,1.262,1.2613,1.2571,1.2576,1.2578,1.2575,1.2551,1.2551,1.2551,1.2551,1.2551,1.2551,0,0,1.3116,1.3082,1.3057,1.3024,1.2973,1.294,1.2934,1.2877,1.2854,1.2812,1.2779,1.2747,1.2682,1.2646,1.262,1.2609,1.2585,1.2598,1.2608,1.2586,1.2586,1.2586,1.2581,1.258,1.2596,1.2596,1.2596,0,1.3136,1.3087,1.3047,1.3015,1.2988,1.2949,1.2922,1.2891,1.283,1.2812,1.2805,1.2721,1.2684,1.2636,1.2633,1.2614,1.2603,1.2605,1.259,1.2589,1.2588,1.2583,1.2581,1.2598,1.2598,1.2598,1.2597,0,1.3114,1.308,1.3065,1.3008,1.298,1.2951,1.2904,1.288,1.2855,1.2822,1.2779,1.2733,1.2683,1.267,1.2645,1.2617,1.2614,1.26,1.2587,1.2591,1.2584,1.2582,1.2601,1.26,1.2599,1.2599,0,0,1.3144,1.3064,1.3059,1.3032,1.2973,1.2945,1.2913,1.2866,1.2845,1.2804,1.2775,1.272,1.2705,1.2675,1.2645,1.2627,1.2619,1.2613,1.2611,1.2615,1.2584,1.2595,1.2593,1.2603,1.2602,1.2602,1.2587,0,1.3139,1.3081,1.3043,1.2999,1.2966,1.2928,1.29,1.2859,1.2827,1.2793,1.2757,1.2718,1.2703,1.2684,1.2664,1.2625,1.2612,1.2625,1.2573,1.2572,1.2586,1.259,1.2602,1.259,1.2585,1.2584,1.2584,0,1.3125,1.3086,1.304,1.2983,1.2967,1.2943,1.2895,1.2864,1.2817,1.2794,1.2761,1.2731,1.2693,1.2685,1.2631,1.2641,1.2617,1.2594,1.2593,1.2586,1.2578,1.2582,1.2586,1.2584,1.258,1.258,1.2581,0,1.315,1.3085,1.3049,1.3027,1.296,1.2943,1.2914,1.2867,1.284,1.2798,1.278,1.2734,1.2708,1.2672,1.263,1.2628,1.258,1.2569,1.2559,1.256,1.255,1.2551,1.2549,1.2537,1.2537,1.2537,1.2537,0,1.3148,1.312,1.3059,1.3036,1.3004,1.2959,1.2928,1.2896,1.2854,1.2823,1.2786,1.2758,1.2704,1.2668,1.2634,1.2594,1.2583,1.2562,1.2554,1.2565,1.2568,1.2548,1.2548,1.2536,1.2536,1.2536,1.2536,0,1.3169,1.3127,1.3085,1.3025,1.3009,1.2988,1.2935,1.2911,1.2877,1.2838,1.2826,1.2772,1.2728,1.2682,1.2622,1.2599,1.2559,1.2548,1.2576,1.2571,1.2563,1.2564,1.2548,1.2543,1.2536,1.2536,1.2536,0,1.317,1.3148,1.3086,1.3064,1.3036,1.3,1.2972,1.2927,1.29,1.2843,1.2825,1.2779,1.2739,1.267,1.2624,1.2577,1.2563,1.2561,1.2556,1.2568,1.2562,1.2563,1.256,1.2563,1.2563,1.2563,1.2563,0,1.3176,1.3156,1.3119,1.3074,1.3042,1.3004,1.2965,1.2948,1.2895,1.2866,1.2821,1.279,1.2728,1.2682,1.263,1.2597,1.2571,1.2565,1.256,1.2571,1.2588,1.2578,1.258,1.2566,1.2565,1.2565,1.2565,1.2565,1.3186,1.3164,1.3117,1.3076,1.3042,1.3006,1.2979,1.2942,1.2904,1.2852,1.2827,1.2781,1.2732,1.2659,1.2628,1.259,1.2583,1.2576,1.2574,1.2573,1.2575,1.2595,1.2581,1.2581,1.2581,1.258,1.258,0,1.3188,1.3156,1.3119,1.3065,1.3033,1.3012,1.2967,1.294,1.2901,1.2859,1.282,1.2767,1.2722,1.2672,1.2623,1.2602,1.2589,1.2591,1.2591,1.2584,1.2585,1.2594,1.2603,1.2603,1.2603,1.2603,1.2603,1.2603,1.3186,1.3147,1.3122,1.3065,1.3032,1.2988,1.2964,1.293,1.2895,1.2838,1.2801,1.2769,1.2723,1.267,1.2627,1.2613,1.2596,1.2601,1.2584,1.2586,1.2584,1.2583,1.2591,1.2598,1.2598,1.2586,1.2586,1.2586]}]]